Tanner, AL

9:55 AM CST on February 24, 2017 (GMT -0600)
Pryor Regional

Weather History for KDCU - March, 2013

Change the Weather History Date:

Saturday, March 9, 2013

  Actual Average Record
Temperature  
Mean Temperature 52 °F -  
Max Temperature 66 °F 63 °F 82 °F (1974)
Min Temperature 37 °F 36 °F 21 °F (1984)
Degree Days  
Heating Degree Days 14    
Growing Degree Days 2 (Base 50)    
Moisture  
Dew Point 33 °F    
Average Humidity 47    
Maximum Humidity 79    
Minimum Humidity 30    
Precipitation  
Precipitation 0.00 in - - ()
Sea Level Pressure  
Sea Level Pressure 30.17 in    
Wind  
Wind Speed 5 mph (SE)    
Max Wind Speed 16 mph    
Max Gust Speed 22 mph    
Visibility 10 miles    
Events      
Averages and records for this station are not official NWS values.
T = Trace of Precipitation, MM = Missing Value Source: NWS Daily Summary

Daily Weather History Graph

Daily Weather History Graph

Search for Another Location

Airport or City:

Trip Planner

Search our weather history database for the weather conditions in past years. The results will help you decide how hot, cold, wet, or windy it might be!

Date:

Astronomy

Mar. 09, 2013 Rise Set
Actual Time 6:06 AM CST 5:50 PM CST
Civil Twilight 5:41 AM CST 6:15 PM CST
Nautical Twilight 5:11 AM CST 6:45 PM CST
Astronomical Twilight 4:42 AM CST 7:14 PM CST
Moon 4:25 AM CST (3/9) 3:55 PM CST (3/9)
Length of Visible Light 12h 34m
Length of Day
11h 44m
Waning Crescent, 5% of the Moon is Illuminated
Mar 9
Waning Crescent
Mar 11
New
Mar 19
First Quarter
Mar 27
Full
Apr 2
Last Quarter

Hourly Weather History & Observations

Time (CST) Temp. Windchill Dew Point Humidity Pressure Visibility Wind Dir Wind Speed Gust Speed Precip Events Conditions
1:53 AM 37.0 °F - 30.9 °F 79% 30.23 in 10.0 mi Calm Calm - N/A   Clear
2:53 AM 39.0 °F - 30.0 °F 70% 30.20 in 10.0 mi Calm Calm - N/A   Clear
3:53 AM 42.1 °F 39.2 °F 30.0 °F 62% 30.21 in 10.0 mi ESE 4.6 mph - N/A   Clear
4:53 AM 45.0 °F 42.6 °F 28.9 °F 53% 30.23 in 10.0 mi ESE 4.6 mph - N/A   Clear
5:53 AM 43.0 °F 41.3 °F 28.9 °F 58% 30.24 in 10.0 mi SE 3.5 mph - N/A   Clear
6:53 AM 46.0 °F 43.1 °F 28.0 °F 50% 30.24 in 10.0 mi SE 5.8 mph - N/A   Clear
8:53 AM 48.0 °F - 30.0 °F 50% 30.24 in 10.0 mi ESE 5.8 mph - N/A   Mostly Cloudy
9:53 AM 51.1 °F - 32.0 °F 48% 30.25 in 10.0 mi SSE 4.6 mph - N/A   Clear
10:53 AM 55.9 °F - 32.0 °F 40% 30.24 in 10.0 mi SSE 8.1 mph - N/A   Clear
11:53 AM 59.0 °F - 32.0 °F 36% 30.22 in 10.0 mi South 11.5 mph - N/A   Clear
12:53 PM 64.0 °F - 35.1 °F 34% 30.17 in 10.0 mi SSE 11.5 mph - N/A   Clear
1:53 PM 66.9 °F - 34.0 °F 30% 30.14 in 10.0 mi SSE 16.1 mph 21.9 mph N/A   Clear
2:53 PM 64.9 °F - 35.1 °F 33% 30.14 in 10.0 mi SSE 12.7 mph - N/A   Clear
3:53 PM 64.9 °F - 36.0 °F 34% 30.12 in 10.0 mi SE 11.5 mph - N/A   Clear
4:53 PM 63.0 °F - 37.0 °F 38% 30.11 in 10.0 mi SE 10.4 mph - N/A   Clear
5:53 PM 62.1 °F - 37.0 °F 39% 30.12 in 10.0 mi SE 10.4 mph - N/A   Clear
6:53 PM 59.0 °F - 36.0 °F 42% 30.10 in 10.0 mi SE 6.9 mph - N/A   Clear
7:53 PM 57.9 °F - 35.1 °F 42% 30.10 in 10.0 mi ESE 6.9 mph - N/A   Clear
8:53 PM 57.0 °F - 35.1 °F 44% 30.08 in 10.0 mi ESE 6.9 mph - N/A   Clear
9:53 PM 54.0 °F - 35.1 °F 49% 30.09 in 10.0 mi East 3.5 mph - N/A   Clear
10:53 PM 51.1 °F - 35.1 °F 54% 30.09 in 10.0 mi ESE 3.5 mph - N/A   Clear
11:53 PM 55.0 °F - 34.0 °F 45% 30.10 in 10.0 mi ESE 5.8 mph - N/A   Clear